SWA120 KSFO-KLAX

Flight info

Callsign SWA120
Flight time N/A
Altitude 35000
Route WESLA5 SUSEY EBAYE BURGL IRNMN2
Aircraft B738/M-SDE2E3FGHIRWXY/LB1

Departure

Time N/A
Airport San Francisco International Airport (KSFO)

Arrival

Time 2026-04-25 08:19
Airport Los Angeles International Airport (KLAX)
Time Latitude Longitude Altitude Speed Heading
2026-04-25 08:02 34.93753 -119.49712 29424 ft 438 kts 148°
2026-04-25 08:02 34.91352 -119.47475 29005 ft 431 kts 148°
2026-04-25 08:03 34.86660 -119.43204 28815 ft 425 kts 149°
2026-04-25 08:03 34.84278 -119.41079 28252 ft 424 kts 149°
2026-04-25 08:03 34.81898 -119.38962 27633 ft 422 kts 149°
2026-04-25 08:04 34.79530 -119.36853 27064 ft 420 kts 149°
2026-04-25 08:04 34.77202 -119.34780 26505 ft 417 kts 150°
2026-04-25 08:04 34.74866 -119.32700 25956 ft 413 kts 150°
2026-04-25 08:04 34.72581 -119.30680 25411 ft 410 kts 150°
2026-04-25 08:05 34.70281 -119.28667 24861 ft 407 kts 150°
2026-04-25 08:05 34.67988 -119.26669 24319 ft 404 kts 150°
2026-04-25 08:05 34.65703 -119.24683 23771 ft 401 kts 150°
2026-04-25 08:05 34.63426 -119.22710 23222 ft 398 kts 150°
2026-04-25 08:06 34.61201 -119.20791 22696 ft 396 kts 150°
2026-04-25 08:06 34.58946 -119.18851 22151 ft 393 kts 150°
2026-04-25 08:06 34.56735 -119.16951 21615 ft 391 kts 150°
2026-04-25 08:06 34.54522 -119.15035 21071 ft 389 kts 149°
2026-04-25 08:07 34.52335 -119.13120 20571 ft 414 kts 149°
2026-04-25 08:07 34.49896 -119.10992 19963 ft 458 kts 149°
2026-04-25 08:07 34.47193 -119.08632 19270 ft 501 kts 148°
2026-04-25 08:07 34.44271 -119.06073 18528 ft 542 kts 147°
2026-04-25 08:08 34.41118 -119.03309 17744 ft 570 kts 147°
2026-04-25 08:08 34.37958 -119.00542 16949 ft 581 kts 147°
2026-04-25 08:08 34.34719 -118.97710 16094 ft 566 kts 147°
2026-04-25 08:08 34.31640 -118.94990 15317 ft 533 kts 147°
2026-04-25 08:09 34.28769 -118.92389 14565 ft 499 kts 146°
2026-04-25 08:09 34.26095 -118.89931 13858 ft 469 kts 146°
2026-04-25 08:09 34.23553 -118.87579 13194 ft 443 kts 146°
2026-04-25 08:09 34.21176 -118.85377 12567 ft 421 kts 146°
2026-04-25 08:10 34.18868 -118.83375 12069 ft 396 kts 151°
2026-04-25 08:10 34.16515 -118.81928 11945 ft 360 kts 165°
2026-04-25 08:10 34.14195 -118.81419 11684 ft 330 kts 184°
2026-04-25 08:10 34.11992 -118.81660 11302 ft 311 kts 192°
2026-04-25 08:11 34.09895 -118.82065 10955 ft 296 kts 193°
2026-04-25 08:11 34.07898 -118.82461 10654 ft 282 kts 192°
2026-04-25 08:11 34.06008 -118.82818 10413 ft 268 kts 192°
2026-04-25 08:11 34.04211 -118.83114 10343 ft 257 kts 188°
2026-04-25 08:12 34.02441 -118.83007 10239 ft 252 kts 167°
2026-04-25 08:12 34.00866 -118.82202 10181 ft 240 kts 156°
2026-04-25 08:12 33.99461 -118.81211 9770 ft 233 kts 147°
2026-04-25 08:12 33.98316 -118.79820 9068 ft 240 kts 125°
2026-04-25 08:13 33.97555 -118.78052 8451 ft 239 kts 115°
2026-04-25 08:13 33.96896 -118.76221 7878 ft 236 kts 114°
2026-04-25 08:13 33.96240 -118.74438 7299 ft 233 kts 115°
2026-04-25 08:14 33.94903 -118.70965 6157 ft 227 kts 115°
2026-04-25 08:14 33.94234 -118.69238 5591 ft 224 kts 114°
2026-04-25 08:14 33.93585 -118.67560 5114 ft 218 kts 115°
2026-04-25 08:14 33.92977 -118.65939 4794 ft 216 kts 109°
2026-04-25 08:15 33.92793 -118.64147 4364 ft 217 kts 85°
2026-04-25 08:15 33.92953 -118.62368 3783 ft 215 kts 82°
2026-04-25 08:15 33.93127 -118.60593 3207 ft 212 kts 82°
2026-04-25 08:15 33.93294 -118.58875 2786 ft 205 kts 83°
2026-04-25 08:16 33.93464 -118.57195 2452 ft 202 kts 83°
2026-04-25 08:16 33.93635 -118.55523 2214 ft 214 kts 83°
2026-04-25 08:16 33.93829 -118.53636 1885 ft 231 kts 83°
2026-04-25 08:16 33.94010 -118.51805 1562 ft 206 kts 83°
2026-04-25 08:17 33.94169 -118.50233 1290 ft 181 kts 83°
2026-04-25 08:17 33.94315 -118.48829 1067 ft 162 kts 83°
2026-04-25 08:17 33.94448 -118.47537 860 ft 152 kts 84°
2026-04-25 08:17 33.94575 -118.46302 667 ft 153 kts 84°
2026-04-25 08:18 33.94691 -118.45078 461 ft 153 kts 83°
2026-04-25 08:18 33.94835 -118.43855 266 ft 152 kts 82°
2026-04-25 08:18 33.94964 -118.42619 125 ft 141 kts 83°
2026-04-25 08:18 33.95066 -118.41611 124 ft 91 kts 84°
2026-04-25 08:19 33.95115 -118.41142 124 ft 44 kts 82°
2026-04-25 08:19 33.95119 -118.40861 124 ft 24 kts 102°
2026-04-25 08:19 33.95055 -118.40710 122 ft 8 kts 124°
2026-04-25 08:19 33.95053 -118.40707 122 ft 0 kts 124°
2026-04-25 08:20 33.95036 -118.40682 121 ft 7 kts 137°
2026-04-25 08:20 33.94989 -118.40659 121 ft 8 kts 167°
2026-04-25 08:20 33.94910 -118.40639 121 ft 14 kts 156°
2026-04-25 08:20 33.94876 -118.40511 121 ft 20 kts 83°
2026-04-25 08:21 33.94883 -118.40325 118 ft 19 kts 118°
2026-04-25 08:21 33.94801 -118.40276 118 ft 12 kts 169°
2026-04-25 08:21 33.94730 -118.40255 118 ft 6 kts 139°
2026-04-25 08:21 33.94723 -118.40216 117 ft 4 kts 82°
2026-04-25 08:22 33.94725 -118.40196 118 ft 0 kts 83°